Vertical_Velocity
-2 -2 -2 -2 -2 -2 -2 -1 -1 -0 -0 -0 -0 -0 -0 -0 -0 -0 -1 -1 -1 -1 -0 -0 -0 -0 -1 -1 -2 -2 -1 -1 -1 -1 -1 -1 -1 -1 -1 -1 -1 -1 -1 -2 -3 -2 -1 1 0 -0 -0 -0 -0 -1 -1 -1 -1 -2 -2 -2 -4 -4 -4 -3 -2 -2 -1 -1 0
-2 -2 -2 -2 -2 -1 -1 -0 0 0 0 -0 -0 -0 -0 -0 -0 -0 -1 -1 -1 -0 -0 -0 -0 -0 -1 -1 -1 -2 -2 -2 -2 -2 -1 -1 -1 -1 -1 -1 -1 -0 0 -0 -2 -3 -2 -0 -0 -1 -2 -2 -2 -3 -3 -2 -1 -1 -1 -1 -2 -2 -2 -1 1 1 2 2 3
-2 -2 -2 -2 -1 -1 -0 0 0 1 0 -0 -0 -0 -0 -0 -0 -0 -1 -0 -0 -1 -1 -1 -0 -0 -0 -1 -1 -2 -2 -3 -3 -2 -2 -1 -1 -1 -1 -0 0 0 0 0 -2 -3 -4 -3 -2 -2 -3 -3 -3 -4 -4 -3 -2 -1 -0 0 -0 0 1 2 3 4 4 4 3
-2 -2 -2 -2 -1 -1 -0 0 0 0 0 -0 -0 -0 0 0 -0 0 0 -0 -1 -1 -1 -1 -0 -0 -1 -1 -2 -3 -3 -4 -3 -3 -2 -2 -2 -1 -0 0 -0 -0 -1 -1 -2 -3 -4 -4 -4 -4 -4 -4 -5 -4 -4 -3 -3 -2 -0 2 2 1 2 2 4 4 4 3 2
-2 -2 -2 -2 -1 -1 -0 0 0 0 -0 -0 -0 0 0 0 0 0 -0 -1 -1 -1 -1 -0 -0 -1 -1 -2 -3 -4 -4 -4 -4 -3 -3 -3 -2 -1 -0 0 -0 -1 -2 -2 -2 -2 -3 -4 -4 -4 -5 -5 -6 -6 -6 -5 -3 -1 0 0 -0 -0 -0 0 1 2 3 5 6
-3 -2 -2 -1 -1 -0 0 0 0 0 -0 -0 -0 0 0 0 -0 -0 -1 -1 -1 -0 -1 -1 -1 -1 -2 -3 -3 -4 -4 -4 -4 -3 -3 -4 -3 -3 -2 -1 -1 -1 -2 -1 -1 -2 -3 -4 -4 -4 -4 -4 -5 -5 -5 -5 -5 -4 -3 -2 -1 -0 1 1 2 4 7 11 14
-3 -3 -2 -1 -0 0 0 0 0 0 0 -0 -0 -0 -0 -0 -1 -1 -1 -0 -0 -1 -1 -2 -2 -2 -3 -3 -4 -4 -4 -4 -3 -3 -3 -4 -4 -3 -3 -2 -2 -1 -1 -0 -0 -1 -2 -4 -4 -3 -2 -2 -2 -2 -1 -0 1 2 2 4 4 5 7 10 13 13 12 9 8
-3 -3 -2 -1 -0 0 0 0 0 0 -0 -0 -0 -0 -0 -1 -1 -1 -0 -1 -1 -2 -2 -2 -2 -2 -3 -3 -3 -3 -3 -3 -3 -3 -3 -4 -4 -4 -3 -2 -2 -1 -0 0 0 -0 -1 -2 -2 -2 -1 1 2 3 5 7 10 11 11 10 8 7 6 7 9 10 8 4 3
-3 -2 -1 -0 0 -0 -0 -0 -0 -0 -0 -1 -0 -0 -1 -1 -1 -1 -1 -2 -2 -2 -1 -1 -2 -2 -2 -2 -2 -2 -3 -3 -3 -3 -3 -3 -4 -4 -3 -2 -2 -2 -1 -1 -0 -0 -0 -1 -2 -1 0 2 5 8 10 12 12 10 8 6 7 8 8 6 6 5 3 2 1
-2 -1 -1 -0 -0 -0 -1 -0 -0 -0 -0 -0 -0 -0 -0 -1 -1 -2 -2 -2 -2 -2 -1 -1 -1 -2 -2 -2 -2 -2 -2 -2 -2 -2 -2 -2 -2 -3 -3 -3 -3 -3 -3 -2 -2 -2 -1 -2 -3 -3 -2 -1 1 3 5 6 5 3 -0 -2 1 5 8 10 10 8 6 1 -0
-2 -1 -1 -0 -0 -1 -1 -1 -0 -0 -0 0 0 0 -0 -1 -2 -2 -2 -2 -2 -1 -1 -1 -2 -2 -2 -2 -2 -2 -2 -3 -3 -2 -1 -1 -1 -2 -3 -3 -4 -4 -4 -4 -3 -3 -2 -3 -3 -3 -2 -1 -1 -1 -0 -0 -0 -1 -2 -1 1 2 3 4 10 13 14 10 4
-2 -1 -1 -0 -1 -1 -1 -1 -0 -0 0 1 1 0 -0 -1 -2 -2 -2 -3 -2 -1 -1 -2 -2 -2 -2 -2 -3 -3 -3 -3 -3 -3 -2 -0 0 -0 -1 -2 -3 -4 -4 -4 -4 -4 -3 -3 -2 -2 -1 -1 -1 -1 -1 -0 0 1 2 2 2 3 3 3 3 5 8 12 13
-2 -1 -0 -0 -1 -1 -1 -1 -1 -0 0 1 1 1 -0 -1 -2 -2 -2 -2 -2 -2 -2 -3 -3 -3 -3 -3 -3 -4 -3 -3 -3 -2 -2 -0 1 0 -0 -0 -2 -3 -4 -4 -4 -3 -3 -3 -2 -1 -1 -0 -1 -1 -1 -1 1 3 4 4 2 1 1 2 0 -1 -1 2 7
-1 -1 -0 -0 -0 -1 -1 -1 -1 -1 0 1 1 0 -0 -1 -1 -2 -2 -2 -2 -2 -3 -3 -3 -3 -3 -3 -3 -3 -2 -2 -1 -1 -0 1 1 0 -0 -1 -1 -2 -2 -3 -2 -2 -3 -3 -3 -2 -0 1 -0 -1 -2 -2 -0 3 5 4 1 -1 -1 -0 -0 -0 -0 -1 1
-1 -0 0 0 -0 -1 -1 -1 -1 -1 -1 -0 0 0 -0 -0 -1 -2 -2 -2 -2 -2 -2 -3 -2 -2 -2 -2 -1 -1 -1 -1 -0 0 1 2 1 0 -1 -2 -2 -2 -2 -1 0 -0 -2 -4 -5 -3 -0 4 2 -0 -2 -2 0 1 1 1 1 1 -0 -0 0 1 1 1 2
-0 0 1 0 0 -0 -1 -1 -1 -1 -1 -1 -1 -0 -0 -0 -0 -1 -2 -2 -2 -2 -2 -2 -1 -1 -1 -0 -0 -1 -1 -0 -0 0 1 1 0 -1 -2 -3 -3 -3 -3 -1 1 1 -0 -3 -5 -5 -3 2 4 2 -0 -0 1 -0 -2 -2 2 3 3 1 0 1 3 5 5
-0 0 1 1 0 0 -0 -1 -1 -1 -2 -2 -1 -1 -0 -0 -0 -1 -1 -1 -1 -1 -1 -1 -1 -0 -0 -1 -1 -1 -1 -1 -1 -1 -1 -1 -2 -2 -3 -3 -3 -3 -3 -2 0 1 1 -1 -4 -5 -4 -2 3 4 3 2 0 -2 -2 -1 1 3 4 2 1 2 6 11 11
0 1 1 1 1 0 -0 -1 -1 -2 -2 -2 -2 -1 -1 -0 -0 -0 -1 -1 -1 -1 -1 -1 -0 -0 -1 -1 -2 -2 -2 -2 -2 -2 -3 -4 -4 -3 -3 -3 -3 -3 -3 -2 -1 -1 -0 -1 -3 -3 -3 -3 0 3 5 4 -0 -2 -2 -1 0 3 4 5 5 6 7 8 9
0 1 1 1 0 -0 -1 -1 -1 -2 -2 -2 -2 -1 -1 -0 -0 -0 -0 -0 -1 -1 -1 -0 -0 -1 -1 -2 -2 -2 -2 -2 -2 -3 -4 -5 -5 -4 -3 -3 -2 -2 -2 -2 -2 -2 -2 -2 -3 -3 -3 -2 -0 2 3 3 0 -1 -2 -2 -0 2 5 7 7 7 6 6 6
0 0 0 0 -0 -1 -1 -1 -2 -2 -2 -2 -1 -1 -0 -0 0 0 -0 -1 -1 -1 -1 -0 -1 -1 -2 -3 -2 -2 -2 -2 -2 -3 -4 -4 -4 -4 -4 -3 -3 -2 -1 -1 -1 -2 -2 -2 -2 -2 -2 -0 0 1 2 2 2 1 0 -0 -0 1 3 4 4 4 4 4 4
0 -0 -0 -1 -1 -1 -2 -2 -2 -2 -2 -1 -1 -0 -0 0 0 -0 -1 -1 -1 -1 -1 -1 -1 -2 -3 -3 -2 -2 -2 -2 -2 -3 -3 -3 -4 -4 -4 -4 -3 -2 -2 -2 -2 -2 -1 -1 -1 -0 0 1 1 1 2 2 2 3 2 2 1 1 1 1 1 2 2 3 4
-0 -1 -1 -1 -2 -2 -2 -2 -2 -2 -1 -1 -0 -0 -0 -0 -1 -1 -1 -1 -1 -1 -1 -2 -2 -3 -3 -2 -2 -2 -2 -2 -2 -2 -2 -2 -2 -2 -2 -2 -2 -2 -2 -2 -3 -2 -1 -0 0 1 1 1 1 1 1 1 1 1 1 1 1 1 0 0 0 1 2 3 5
-1 -1 -1 -2 -2 -2 -2 -2 -1 -1 -1 -0 -1 -1 -1 -1 -1 -2 -2 -1 -1 -2 -2 -3 -3 -3 -3 -3 -2 -2 -2 -2 -1 -1 -1 -1 -0 -0 0 0 0 -0 -1 -3 -4 -3 -2 -1 0 1 1 1 1 0 0 0 -0 -0 -0 -0 0 0 -0 -0 -0 0 1 3 5
-1 -1 -2 -2 -2 -1 -1 -1 -1 -1 -1 -1 -1 -1 -2 -2 -2 -2 -2 -2 -2 -2 -2 -3 -3 -3 -3 -3 -3 -2 -1 -1 -1 -1 -1 -0 0 1 1 2 1 0 -1 -3 -4 -3 -2 -1 -0 0 1 1 1 0 0 0 -0 -0 0 0 1 0 0 0 0 1 1 3 5
-1 -1 -1 -1 -1 -1 -1 -1 -1 -1 -1 -2 -2 -2 -2 -2 -2 -2 -2 -2 -2 -2 -3 -3 -3 -3 -3 -3 -2 -2 -1 -0 -0 -0 -0 -0 0 1 1 1 0 -1 -2 -4 -4 -3 -2 -1 0 1 1 1 1 1 0 -0 -0 -0 0 1 1 1 1 1 1 1 1 2 3
-1 -1 -1 -1 -1 -1 -1 -1 -1 -1 -2 -2 -2 -2 -2 -2 -2 -2 -2 -2 -2 -2 -3 -3 -3 -3 -3 -2 -1 -0 0 0 0 0 0 0 0 1 1 0 -0 -2 -3 -4 -3 -3 -2 -1 0 2 3 3 3 2 0 -0 -0 -0 0 0 0 1 0 0 -0 -0 -0 -0 0
-1 -1 -1 -1 -1 -1 -1 -1 -1 -1 -1 -1 -2 -2 -2 -3 -2 -2 -2 -2 -2 -2 -2 -2 -3 -3 -2 -1 0 0 0 0 0 0 0 1 1 1 1 0 -1 -2 -3 -3 -3 -2 -2 -1 -0 2 4 5 5 3 2 0 0 -0 -0 -0 -0 0 0 -0 -1 -2 -2 -2 -2
-1 -1 -1 -1 -1 -1 -1 -2 -1 -1 -1 -1 -2 -2 -2 -3 -2 -2 -2 -2 -1 -1 -1 -2 -2 -2 -1 0 0 0 0 0 0 0 0 1 1 1 0 -0 -1 -2 -3 -2 -2 -2 -2 -2 -1 1 3 5 5 4 3 2 1 0 -0 -0 -0 -0 0 -0 -1 -2 -2 -3 -3
-2 -1 -1 -1 -2 -2 -1 -1 -1 -1 -1 -2 -2 -2 -2 -2 -1 -1 -1 -0 -0 -1 -1 -2 -2 -1 -0 -0 -0 -0 0 0 -0 -0 0 0 -0 -0 -0 -1 -1 -2 -2 -2 -2 -2 -2 -2 -2 -0 1 3 3 2 2 1 0 0 0 -0 -0 -0 -0 -1 -1 -2 -2 -2 -3
-2 -1 -1 -1 -1 -1 -1 -1 -1 -1 -2 -2 -2 -2 -2 -1 -0 -0 0 0 -0 -1 -2 -2 -1 -0 -0 -1 -1 -0 -0 -0 -0 -0 -0 -0 -1 -1 -1 -1 -1 -2 -2 -2 -2 -2 -2 -2 -2 -1 -0 0 0 0 -0 -1 -1 -0 -0 -0 -0 -0 -1 -1 -2 -2 -2 -2 -2
-2 -1 -1 -1 -1 -1 -1 -1 -1 -2 -2 -2 -2 -1 -0 0 0 0 0 -0 -1 -2 -2 -1 -0 -0 -0 -0 -0 -1 -0 -0 -0 -0 -1 -1 -1 -1 -1 -0 -1 -2 -3 -2 -1 -1 -1 -2 -2 -1 -1 -0 -0 -1 -1 -2 -2 -1 -1 -1 -1 -1 -1 -2 -2 -2 -2 -2 -2
-1 -1 -1 -1 -1 -1 -1 -1 -2 -2 -2 -2 -1 -0 0 0 0 0 -0 -1 -1 -1 -1 -1 -0 -0 -0 -0 -0 -0 -0 -0 -0 -0 -1 -1 -1 -0 0 1 -1 -2 -3 -2 -1 -1 -1 -2 -2 -2 -1 -1 -1 -1 -2 -3 -2 -2 -1 -1 -1 -1 -1 -1 -2 -2 -2 -1 -2
-1 -1 -1 -1 -1 -1 -1 -2 -2 -2 -2 -1 -0 -0 -0 -0 -0 -0 -0 -1 -1 -1 -1 -0 -0 -0 -0 -1 -0 -0 -0 -0 -0 -0 -1 -1 -0 0 1 1 -1 -2 -2 -2 -1 -1 -1 -2 -3 -3 -2 -1 -1 -2 -2 -3 -2 -2 -1 -1 -1 -1 -1 -1 -1 -1 -1 -1 -1
-2 -2 -1 -1 -1 -1 -1 -2 -2 -2 -1 -1 -0 -0 -0 -0 -0 -0 -0 -1 -1 -1 -0 -0 -0 -0 -0 -0 -0 -0 -0 -0 -0 -0 -1 -1 -0 1 1 0 -1 -2 -2 -1 -1 -1 -2 -3 -3 -3 -2 -2 -1 -2 -2 -2 -1 -1 -1 -1 -1 -0 -0 -0 -0 -0 -0 -0 -0
-2 -2 -1 -1 -1 -1 -1 -2 -2 -1 -1 -0 0 0 0 0 -0 -0 -1 -2 -1 -1 -1 -1 -0 -0 -0 -0 -0 -0 -0 -1 -1 -1 -1 -1 0 0 0 -0 -1 -2 -2 -1 -1 -2 -2 -3 -4 -3 -2 -1 -1 -1 -1 -0 -0 -0 -0 -0 -0 0 0 1 1 1 1 1 1
-2 -2 -2 -1 -1 -1 -1 -1 -1 -1 -0 0 0 0 -0 -0 -0 -1 -1 -2 -1 -1 -1 -1 -0 0 0 -0 -0 -1 -1 -1 -1 -1 -1 -0 -0 -0 -0 -1 -1 -2 -2 -2 -2 -2 -3 -4 -4 -3 -2 -0 -0 -0 -0 -0 -0 0 0 0 1 1 1 1 1 2 2 2 2
-2 -2 -2 -1 -1 -1 -1 -1 -0 -0 0 0 0 -0 -0 -0 -1 -1 -1 -1 -1 -1 -1 -0 0 0 -0 -1 -1 -1 -1 -1 -1 -1 -0 -0 -0 -1 -1 -1 -1 -2 -2 -2 -2 -3 -3 -4 -4 -2 -1 -0 -0 -0 -0 -0 0 0 1 1 1 2 2 2 2 2 2 2 2
-2 -2 -2 -1 -1 -1 -1 -0 -0 -0 0 0 -0 -0 -0 -0 -1 -1 -1 -1 -1 -1 -0 -0 -0 -0 -1 -1 -2 -1 -1 -1 -1 -0 -0 -0 -1 -1 -1 -1 -1 -2 -2 -2 -2 -3 -3 -4 -3 -2 -1 -0 -0 -0 -0 -0 0 1 1 2 2 2 2 2 2 2 1 1 1
-1 -2 -1 -1 -1 -1 -0 -0 -0 -0 -0 -0 -0 -0 -0 -1 -1 -1 -1 -1 -1 -1 -0 -0 -1 -1 -1 -2 -2 -1 -1 -1 -0 -0 -0 -1 -1 -1 -1 -1 -1 -2 -2 -2 -2 -3 -3 -4 -3 -2 -1 -0 -0 -0 0 0 1 1 2 2 2 2 2 2 1 1 1 1 2
-1 -1 -1 -1 -1 -0 -0 -0 -0 -0 -0 -1 -1 -1 -1 -1 -1 -1 -1 -1 -1 -1 -1 -1 -1 -2 -2 -2 -1 -1 -1 -0 -0 -1 -1 -1 -1 -1 -0 -1 -2 -2 -2 -2 -2 -3 -3 -3 -3 -2 -1 -0 -0 0 0 1 1 2 2 2 2 1 1 1 1 1 2 2 2
-1 -1 -1 -1 -1 -0 -0 -0 -0 -0 -0 -1 -1 -1 -1 -1 -1 -1 -1 -1 -1 -1 -1 -1 -2 -2 -2 -2 -1 -1 -1 -1 -1 -1 -1 -1 -1 -0 -0 -1 -1 -2 -2 -2 -2 -3 -3 -3 -2 -2 -1 -0 0 0 1 2 2 2 1 1 1 1 1 1 1 2 2 2 2
Height
3054 3052 3050 3048 3046 3044 3042 3040 3037 3036 3033 3031 3029 3026 3024 3021 3019 3017 3015 3013 3011 3009 3007 3005 3003 3001 2998 2996 2994 2991 2989 2986 2984 2981 2979 2977 2975 2972 2970 2967 2965 2963 2961 2958 2956 2953 2951 2949 2946 2944 2942 2941 2940 2939 2939 2938 2938 2937 2937 2936 2936 2936 2936 2935 2935 2934 2934 2934 2934
3054 3052 3050 3048 3046 3044 3042 3040 3038 3036 3033 3031 3029 3026 3024 3021 3019 3017 3015 3013 3011 3010 3008 3006 3004 3001 2999 2997 2994 2992 2989 2987 2984 2982 2980 2977 2975 2972 2970 2968 2966 2963 2961 2959 2956 2954 2952 2950 2948 2946 2943 2942 2941 2940 2939 2939 2939 2938 2938 2937 2937 2936 2936 2935 2935 2935 2935 2935 2935
3053 3051 3050 3048 3046 3044 3042 3040 3038 3036 3034 3031 3029 3026 3024 3022 3020 3018 3016 3014 3012 3011 3009 3007 3005 3002 3000 2997 2995 2992 2990 2987 2985 2983 2980 2977 2975 2973 2971 2969 2966 2964 2962 2959 2957 2955 2953 2951 2949 2947 2945 2943 2942 2941 2940 2940 2939 2939 2938 2938 2937 2937 2936 2936 2936 2936 2936 2936 2936
3053 3051 3050 3048 3046 3044 3042 3040 3038 3036 3034 3032 3029 3027 3024 3022 3020 3018 3017 3015 3013 3011 3010 3007 3005 3003 3001 2998 2996 2993 2991 2989 2986 2984 2981 2978 2976 2974 2972 2970 2967 2965 2963 2960 2957 2955 2953 2951 2950 2948 2946 2945 2944 2942 2941 2941 2940 2939 2939 2938 2938 2938 2937 2937 2937 2937 2937 2937 2936
3053 3051 3049 3048 3046 3044 3042 3040 3038 3036 3034 3032 3030 3027 3025 3023 3021 3019 3017 3016 3014 3012 3010 3008 3006 3004 3002 3000 2997 2995 2992 2990 2987 2985 2982 2980 2977 2975 2973 2971 2969 2966 2964 2961 2959 2956 2954 2952 2951 2949 2948 2946 2945 2944 2943 2942 2941 2941 2940 2939 2939 2938 2938 2938 2938 2938 2938 2938 2938
3053 3051 3049 3047 3046 3044 3042 3040 3038 3036 3035 3032 3030 3028 3026 3024 3022 3020 3018 3016 3015 3013 3011 3009 3007 3005 3003 3001 2998 2996 2994 2991 2989 2986 2984 2981 2978 2976 2974 2972 2970 2968 2965 2963 2960 2958 2956 2954 2952 2951 2949 2948 2946 2946 2944 2943 2942 2941 2941 2940 2940 2939 2939 2939 2939 2939 2939 2939 2938
3053 3051 3049 3047 3046 3044 3042 3041 3039 3037 3035 3033 3031 3028 3026 3024 3022 3021 3019 3017 3016 3014 3011 3010 3008 3006 3004 3002 3000 2997 2995 2993 2990 2988 2985 2982 2980 2977 2975 2973 2971 2969 2967 2965 2962 2960 2958 2956 2954 2952 2951 2950 2949 2947 2946 2945 2944 2943 2942 2941 2941 2941 2941 2940 2940 2940 2939 2938 2938
3053 3051 3049 3047 3046 3044 3042 3041 3039 3037 3035 3033 3031 3029 3027 3025 3023 3021 3020 3018 3016 3014 3012 3010 3008 3006 3005 3003 3001 2998 2996 2994 2991 2989 2987 2985 2982 2980 2977 2975 2973 2971 2969 2966 2965 2962 2960 2958 2956 2955 2953 2952 2951 2949 2948 2947 2946 2945 2944 2943 2942 2941 2941 2941 2941 2940 2939 2939 2939
3053 3051 3050 3048 3046 3044 3042 3041 3039 3037 3036 3034 3031 3030 3027 3026 3024 3022 3021 3018 3016 3015 3013 3011 3009 3007 3006 3004 3001 2999 2997 2995 2993 2991 2988 2986 2984 2982 2980 2977 2975 2972 2970 2968 2966 2965 2962 2961 2959 2957 2956 2954 2952 2951 2950 2949 2947 2946 2945 2944 2944 2943 2942 2942 2942 2941 2941 2940 2940
3053 3051 3050 3048 3046 3044 3043 3041 3040 3038 3036 3034 3032 3030 3028 3026 3025 3023 3021 3019 3017 3015 3014 3012 3010 3008 3006 3005 3002 3000 2998 2996 2994 2991 2990 2987 2986 2984 2982 2980 2977 2975 2972 2970 2968 2966 2964 2962 2960 2959 2957 2955 2954 2952 2951 2950 2948 2947 2946 2946 2945 2944 2943 2942 2942 2942 2942 2941 2941
3053 3052 3050 3048 3046 3045 3043 3042 3040 3039 3037 3035 3033 3031 3029 3027 3026 3024 3022 3020 3018 3016 3015 3013 3011 3009 3007 3006 3003 3001 2999 2997 2995 2993 2991 2989 2987 2985 2983 2981 2979 2977 2975 2972 2970 2968 2966 2964 2962 2960 2958 2957 2955 2954 2952 2951 2950 2949 2948 2947 2946 2945 2944 2943 2942 2942 2943 2943 2943
3054 3052 3050 3048 3047 3045 3044 3042 3041 3039 3037 3036 3033 3031 3030 3028 3026 3024 3023 3021 3019 3017 3016 3014 3012 3010 3008 3006 3005 3002 3000 2998 2996 2994 2992 2990 2988 2986 2984 2982 2981 2978 2976 2974 2971 2970 2967 2966 2964 2962 2960 2959 2957 2956 2954 2953 2952 2951 2950 2949 2948 2947 2946 2945 2944 2943 2943 2944 2944
3054 3052 3051 3049 3047 3046 3044 3043 3041 3040 3038 3036 3034 3032 3030 3028 3027 3025 3023 3022 3020 3018 3016 3015 3013 3011 3009 3007 3005 3003 3001 2999 2997 2995 2992 2991 2989 2987 2985 2983 2981 2979 2977 2975 2973 2971 2969 2967 2965 2963 2962 2960 2959 2957 2956 2955 2954 2953 2952 2951 2950 2949 2948 2947 2946 2945 2945 2944 2945
3054 3052 3051 3049 3048 3046 3045 3043 3042 3040 3038 3036 3035 3033 3031 3029 3027 3026 3024 3022 3021 3019 3017 3015 3013 3011 3010 3008 3006 3004 3001 2999 2997 2995 2993 2991 2989 2987 2986 2984 2982 2980 2978 2976 2974 2972 2970 2969 2967 2965 2963 2962 2960 2959 2957 2956 2955 2954 2954 2953 2952 2951 2950 2949 2948 2947 2946 2946 2946
3054 3053 3051 3050 3048 3047 3046 3044 3042 3041 3039 3037 3035 3033 3031 3030 3028 3026 3025 3023 3021 3020 3018 3016 3014 3012 3010 3008 3006 3004 3002 3000 2998 2995 2993 2991 2989 2987 2986 2984 2982 2981 2979 2977 2975 2973 2971 2970 2968 2966 2965 2963 2962 2961 2959 2957 2957 2956 2955 2954 2953 2952 2951 2950 2949 2949 2948 2947 2946
3055 3053 3052 3050 3049 3047 3046 3044 3043 3041 3039 3037 3036 3034 3032 3030 3029 3027 3025 3024 3022 3020 3019 3017 3015 3013 3011 3009 3007 3005 3003 3001 2998 2996 2993 2991 2989 2987 2986 2985 2983 2981 2979 2978 2976 2974 2972 2971 2970 2968 2966 2964 2963 2962 2960 2959 2958 2957 2956 2955 2954 2953 2952 2951 2950 2949 2948 2947 2947
3055 3054 3052 3051 3049 3048 3046 3045 3043 3041 3040 3038 3036 3034 3033 3031 3029 3027 3026 3024 3023 3021 3019 3018 3016 3014 3012 3010 3008 3006 3004 3001 2999 2996 2994 2991 2989 2987 2986 2985 2983 2982 2980 2978 2977 2975 2974 2972 2971 2969 2967 2965 2964 2963 2961 2961 2960 2958 2956 2956 2955 2954 2953 2952 2951 2949 2948 2947 2947
3056 3054 3053 3051 3050 3048 3047 3045 3044 3042 3040 3038 3036 3035 3033 3031 3030 3028 3026 3025 3023 3022 3020 3018 3016 3015 3013 3011 3009 3006 3005 3002 3000 2997 2994 2992 2990 2988 2987 2986 2984 2982 2981 2979 2978 2976 2974 2973 2971 2970 2968 2966 2965 2964 2962 2961 2960 2959 2958 2957 2956 2955 2954 2953 2952 2951 2949 2948 2948
3056 3055 3053 3052 3050 3049 3047 3046 3044 3042 3041 3039 3037 3035 3034 3032 3030 3029 3027 3026 3024 3022 3021 3019 3017 3016 3013 3011 3010 3007 3006 3003 3001 2998 2996 2994 2991 2990 2988 2986 2985 2983 2981 2980 2978 2977 2975 2974 2972 2971 2969 2967 2966 2965 2963 2962 2961 2959 2959 2958 2957 2956 2955 2954 2953 2952 2951 2950 2949
3056 3055 3054 3052 3051 3049 3048 3046 3044 3043 3041 3039 3037 3036 3034 3032 3031 3029 3028 3026 3025 3023 3021 3020 3018 3016 3014 3012 3011 3009 3006 3005 3002 3000 2998 2996 2994 2992 2990 2988 2986 2985 2983 2981 2979 2977 2976 2974 2973 2971 2970 2969 2967 2966 2965 2963 2962 2961 2960 2959 2958 2957 2956 2955 2954 2953 2952 2951 2950
3057 3056 3054 3053 3051 3050 3048 3046 3045 3043 3041 3040 3038 3036 3035 3033 3031 3030 3028 3026 3025 3024 3022 3021 3019 3017 3015 3013 3011 3010 3008 3006 3004 3002 3000 2998 2996 2994 2992 2991 2988 2986 2985 2982 2981 2979 2977 2976 2974 2973 2971 2970 2969 2967 2966 2965 2963 2962 2961 2960 2959 2958 2957 2956 2955 2954 2952 2952 2951
3057 3056 3054 3053 3051 3050 3048 3047 3045 3043 3042 3040 3039 3037 3035 3034 3032 3030 3029 3027 3026 3024 3023 3021 3020 3018 3016 3015 3013 3011 3009 3008 3006 3004 3002 3001 2999 2997 2995 2993 2991 2989 2987 2985 2982 2981 2979 2977 2976 2974 2973 2971 2970 2969 2967 2966 2965 2964 2963 2961 2961 2959 2958 2957 2956 2955 2954 2953 2952
3057 3056 3055 3053 3052 3050 3049 3047 3046 3044 3042 3041 3039 3037 3036 3034 3032 3031 3029 3028 3026 3025 3024 3022 3021 3019 3017 3016 3014 3013 3011 3010 3008 3006 3004 3003 3001 2999 2997 2996 2994 2991 2989 2987 2985 2983 2981 2980 2978 2976 2975 2973 2972 2970 2969 2968 2966 2965 2964 2963 2962 2961 2960 2959 2958 2956 2956 2954 2953
3057 3056 3055 3053 3052 3051 3049 3048 3046 3045 3043 3041 3040 3038 3036 3035 3033 3032 3030 3029 3028 3026 3025 3023 3022 3020 3019 3017 3016 3014 3013 3011 3010 3008 3006 3004 3003 3001 2999 2997 2995 2993 2991 2989 2987 2985 2983 2981 2980 2978 2977 2975 2974 2972 2971 2970 2968 2967 2966 2965 2963 2962 2961 2960 2959 2958 2957 2956 2955
3057 3056 3055 3054 3052 3051 3050 3049 3047 3046 3044 3042 3041 3039 3037 3036 3034 3033 3032 3030 3029 3027 3026 3024 3023 3021 3020 3019 3017 3016 3015 3013 3011 3009 3008 3006 3004 3002 3001 2999 2997 2995 2992 2990 2989 2987 2985 2984 2982 2980 2979 2977 2976 2974 2973 2971 2970 2969 2968 2966 2966 2964 2963 2962 2961 2960 2959 2958 2957
3058 3056 3055 3054 3053 3052 3051 3050 3048 3046 3045 3043 3041 3040 3038 3037 3036 3035 3033 3032 3030 3029 3027 3026 3025 3023 3022 3020 3019 3017 3016 3014 3013 3011 3009 3007 3006 3004 3002 3000 2998 2996 2993 2991 2990 2988 2986 2985 2983 2982 2980 2979 2977 2976 2975 2973 2972 2971 2970 2969 2967 2966 2965 2964 2963 2962 2961 2960 2959
3058 3057 3056 3055 3054 3053 3052 3051 3049 3048 3046 3044 3043 3041 3040 3039 3037 3036 3035 3033 3032 3030 3029 3027 3026 3025 3023 3022 3021 3019 3017 3016 3014 3012 3010 3008 3006 3005 3003 3001 2999 2996 2995 2993 2991 2989 2988 2986 2985 2983 2982 2981 2979 2978 2976 2975 2974 2973 2972 2971 2969 2968 2967 2966 2965 2963 2962 2961 2960
3059 3058 3057 3056 3055 3054 3053 3052 3050 3049 3047 3046 3044 3043 3041 3040 3039 3038 3036 3035 3033 3032 3031 3029 3027 3026 3025 3023 3022 3020 3018 3017 3015 3013 3011 3010 3008 3006 3004 3002 3000 2998 2996 2994 2992 2991 2989 2988 2986 2985 2984 2982 2981 2980 2978 2977 2976 2975 2973 2972 2971 2970 2969 2967 2966 2965 2964 2963 2962
3061 3060 3059 3058 3056 3056 3054 3053 3051 3050 3048 3047 3046 3044 3043 3042 3041 3039 3038 3036 3035 3033 3032 3030 3029 3027 3026 3024 3023 3021 3019 3018 3016 3014 3012 3011 3009 3007 3005 3003 3001 2999 2997 2996 2994 2992 2991 2989 2988 2987 2986 2984 2983 2981 2980 2979 2978 2976 2975 2974 2972 2971 2970 2969 2968 2966 2966 2965 2963
3062 3061 3060 3059 3058 3057 3056 3054 3053 3051 3050 3049 3047 3046 3045 3044 3042 3041 3040 3038 3036 3035 3033 3031 3030 3029 3027 3025 3024 3022 3020 3019 3017 3015 3013 3011 3009 3007 3006 3004 3002 3000 2999 2997 2996 2994 2992 2991 2990 2989 2987 2986 2985 2983 2982 2981 2979 2978 2977 2975 2974 2973 2971 2970 2969 2968 2967 2966 2965
3064 3063 3061 3060 3059 3058 3057 3055 3054 3053 3051 3050 3049 3048 3047 3045 3044 3042 3041 3039 3037 3036 3034 3033 3031 3030 3028 3026 3025 3023 3021 3019 3018 3016 3014 3012 3010 3008 3007 3005 3003 3001 3000 2998 2997 2995 2994 2993 2991 2991 2989 2988 2986 2985 2983 2982 2981 2980 2978 2977 2976 2975 2973 2972 2971 2970 2969 2968 2967
3065 3064 3063 3061 3060 3059 3058 3056 3055 3054 3053 3052 3051 3049 3048 3047 3045 3044 3042 3041 3039 3037 3036 3034 3032 3031 3029 3027 3026 3024 3022 3020 3018 3017 3015 3013 3011 3009 3008 3006 3004 3002 3001 3000 2998 2997 2996 2994 2993 2992 2991 2989 2988 2986 2985 2984 2983 2981 2980 2979 2978 2977 2976 2975 2973 2972 2971 2970 2969
3066 3065 3064 3063 3061 3060 3059 3058 3057 3056 3054 3053 3052 3051 3049 3048 3046 3045 3043 3042 3040 3038 3037 3035 3034 3032 3030 3028 3026 3025 3023 3021 3019 3018 3016 3014 3012 3011 3009 3007 3005 3004 3002 3001 3000 2998 2997 2996 2995 2994 2992 2991 2990 2988 2987 2986 2985 2983 2982 2981 2980 2979 2978 2977 2976 2975 2974 2972 2971
3067 3066 3065 3064 3062 3061 3060 3059 3058 3057 3056 3055 3053 3052 3051 3049 3047 3046 3045 3043 3041 3040 3038 3036 3035 3033 3031 3029 3028 3026 3024 3022 3021 3019 3017 3015 3014 3012 3010 3008 3007 3005 3004 3002 3001 3000 2999 2998 2996 2995 2994 2993 2992 2990 2989 2988 2987 2986 2985 2984 2983 2982 2981 2979 2978 2977 2976 2975 2974
3068 3067 3066 3065 3064 3063 3062 3061 3060 3058 3057 3056 3055 3053 3052 3050 3049 3047 3046 3044 3042 3041 3039 3037 3036 3034 3032 3031 3029 3027 3025 3023 3022 3020 3018 3016 3015 3013 3012 3010 3008 3007 3006 3004 3003 3001 3000 2999 2998 2997 2996 2995 2994 2993 2991 2990 2989 2988 2987 2986 2985 2984 2983 2982 2981 2979 2978 2977 2976
3069 3068 3067 3066 3065 3064 3063 3062 3061 3060 3059 3057 3056 3055 3053 3051 3050 3048 3047 3045 3043 3042 3040 3039 3037 3035 3034 3032 3030 3028 3026 3025 3023 3021 3020 3018 3016 3015 3013 3011 3010 3009 3007 3006 3005 3003 3002 3001 3000 2999 2998 2997 2996 2995 2994 2993 2991 2991 2989 2988 2987 2986 2985 2984 2982 2981 2980 2979 2978
3071 3069 3068 3067 3066 3065 3064 3063 3062 3061 3060 3058 3057 3056 3054 3052 3051 3050 3048 3046 3045 3043 3041 3040 3038 3036 3035 3033 3031 3030 3028 3026 3024 3023 3021 3020 3018 3016 3015 3013 3012 3011 3009 3007 3006 3005 3004 3003 3002 3001 3000 2999 2998 2997 2996 2995 2994 2993 2991 2991 2989 2988 2987 2986 2985 2983 2982 2981 2980
3071 3071 3070 3069 3068 3067 3066 3065 3063 3062 3061 3060 3058 3056 3055 3054 3052 3051 3049 3048 3046 3045 3043 3041 3040 3038 3036 3034 3032 3031 3029 3027 3026 3024 3023 3021 3020 3018 3016 3015 3014 3012 3011 3009 3008 3007 3006 3005 3004 3003 3002 3001 3001 2999 2998 2997 2996 2995 2994 2992 2991 2990 2989 2987 2986 2985 2984 2982 2981
3073 3072 3071 3070 3069 3068 3067 3066 3065 3063 3062 3061 3059 3058 3056 3055 3054 3052 3051 3049 3047 3046 3044 3043 3041 3039 3037 3036 3034 3032 3031 3029 3027 3026 3024 3023 3021 3020 3018 3017 3016 3014 3013 3011 3010 3009 3008 3007 3006 3005 3005 3004 3003 3001 3000 2999 2998 2996 2996 2994 2993 2992 2991 2989 2988 2987 2986 2984 2983
3074 3073 3072 3071 3070 3069 3068 3067 3066 3064 3063 3061 3060 3059 3058 3056 3055 3054 3052 3051 3049 3047 3046 3044 3042 3041 3039 3037 3036 3034 3032 3031 3029 3027 3026 3024 3023 3022 3020 3019 3017 3016 3015 3013 3012 3011 3010 3009 3008 3007 3006 3006 3005 3003 3002 3001 3000 2999 2997 2996 2995 2993 2992 2991 2990 2988 2987 2986 2985
3075 3074 3073 3072 3071 3070 3069 3068 3067 3066 3064 3063 3061 3060 3059 3058 3056 3055 3054 3052 3051 3049 3047 3046 3044 3042 3041 3039 3037 3036 3034 3032 3031 3029 3028 3026 3025 3024 3022 3021 3019 3018 3016 3015 3014 3013 3012 3011 3010 3010 3009 3008 3006 3006 3004 3003 3002 3001 2999 2998 2996 2995 2994 2993 2991 2991 2989 2988 2987